Location: San Antonio
(29.4240°N, 98.4930°W)
Time: 05:54:53
(UTC-06:00)

ISS - All Passes

Search period start: 05 March 2015 00:00
Search period end: 15 March 2015 01:00
Orbit: 397 x 408 km, 51.6° (Epoch: 04 March)

Date Brightness Start Highest point End Pass type
(mag) Time Alt. Az. Time Alt. Az. Time Alt. Az.
05 Mar - 06:21:31 10° SE 06:21:44 10° SE 06:22:06 10° ESE visible
05 Mar - 07:54:49 10° WSW 07:57:54 42° NW 08:00:59 10° NNE daylight
05 Mar - 14:29:03 10° NNE 14:29:46 11° NNE 14:30:36 10° NE daylight
05 Mar - 16:03:19 10° NW 16:06:31 61° SW 16:09:43 10° SSE daylight
06 Mar - 07:01:49 10° SW 07:05:02 76° SE 07:08:15 10° NE daylight
06 Mar - 15:10:29 10° NNW 15:13:39 51° NE 15:16:49 10° ESE daylight
07 Mar - 06:09:22 10° S 06:12:12 29° SE 06:15:05 10° ENE visible
07 Mar - 07:46:27 10° W 07:48:41 17° NW 07:50:52 10° N daylight
07 Mar - 14:18:00 10° NNW 14:20:40 23° NE 14:23:21 10° E daylight
07 Mar - 15:54:34 10° WNW 15:57:00 19° SW 15:59:23 10° S daylight
08 Mar - 06:17:54 10° SSE 06:19:24 13° SE 06:21:01 10° E visible
08 Mar - 07:52:38 10° WSW 07:55:37 33° NW 07:58:36 10° NNE daylight
08 Mar - 14:26:04 10° N 14:27:31 13° NE 14:29:04 10° ENE daylight
08 Mar - 16:01:03 10° NW 16:04:10 46° SW 16:07:17 10° SSE daylight
09 Mar - 06:59:25 10° SW 07:02:38 82° NW 07:05:52 10° NE visible
09 Mar - 15:08:03 10° NW 15:11:15 67° NE 15:14:28 10° SE daylight
10 Mar - 06:06:43 10° SSW 06:09:43 37° SE 06:12:45 10° ENE visible
10 Mar - 07:44:23 10° WNW 07:46:17 14° NW 07:48:08 10° N daylight
10 Mar - 14:15:23 10° NNW 14:18:13 28° NE 14:21:05 10° ESE daylight
10 Mar - 15:52:26 10° W 15:54:29 15° SW 15:56:27 10° SSW daylight
11 Mar - 05:14:47 10° SSE 05:16:50 16° SE 05:18:59 10° E visible
11 Mar - 06:50:17 10° WSW 06:53:07 27° NW 06:55:56 10° NNE visible
11 Mar - 13:23:09 10° N 13:25:02 15° NE 13:27:01 10° ENE daylight
11 Mar - 14:58:35 10° WNW 15:01:35 36° SW 15:04:34 10° SSE daylight
12 Mar - 05:56:49 10° SW 06:00:02 64° NW 06:03:14 10° NE visible
12 Mar - 14:05:23 10° NW 14:08:37 86° NE 14:11:50 10° SE daylight
13 Mar - 05:03:53 10° SSW 05:07:01 48° SE 05:10:09 10° NE visible
13 Mar - 06:42:12 10° WNW 06:43:40 12° NW 06:45:02 10° N visible
13 Mar - 13:12:32 10° NNW 13:15:32 34° NE 13:18:32 10° ESE daylight
13 Mar - 14:50:14 10° W 14:51:44 12° SW 14:53:06 10° SSW daylight
14 Mar - 04:11:36 10° S 04:14:02 20° SE 04:16:32 10° ENE night (unlit)
14 Mar - 05:47:43 10° W 05:50:23 23° NW 05:53:01 10° NNE visible
14 Mar - 12:20:05 10° N 12:22:18 17° NE 12:24:35 10° E daylight
14 Mar - 13:55:55 10° WNW 13:58:46 28° SW 14:01:34 10° S daylight
